Find Starlink 11523

NORAD ID: 62565 Int'l Des: 2025-006 Owner: SPXS Country: US Constellation: starlink operational
又名: STARLINK-11523 [DTC] celestrak
LEOCIRCULAR

当前视图

正在加载3D地球...

About Starlink 11523

Starlink 11523 (NORAD 62565) is a starlink constellation satellite (v2 mini d2c) launched Jan 10, 2025 by SPXS of US. It operates in LEO, CIRCULAR orbit with a mass of 960.00 kg.

即将过境

Passes for default location (London). Set your location on the main map for personalized predictions.

高度历史

Loading altitude history...

两行轨道根数

1 62565U 25006M 26262.70665652 .00123033 00000-0 94763-3 0 9996
2 62565 43.0003 50.6558 0001518 279.7123 80.3574 15.70854108 97115
Epoch: Sep 19, 2026 • Age: 33 hours

当前状态

高度 355.4 km
远地点 / 近地点 N/A
速度 7.70 km/s
星下点 1.52°N, 165.49°W
发射日期 Jan 10, 2025
运行时间 1.6 years
类型 internet

技术详情

分类 Payload
质量 960.00 kg
干质量 910.00 kg
长度 0.30 m
跨度 29.00 m
形状 ? Box + pan
制造商 SPXS
平台类型 Starlink V2MD
阶段状态 In Orbit
所有者/国家 SPXS/US

Most Searched